CAPE
432 444 750 849 859 837 603 578 502 417 460 490 601 564 540 494 481 525 599 704 635 670 751 888 1085 1111 1200 1146 1120 1068 1032 946 914 897 820 751 729 720 743 697 724 732 844 783 719 747 798 874 802 916 815 880 753 692 794 1002 993 848 786 906 1023 1127 947 557 404 356 544 624 678 758 967 1248 1398 1716 1729 1896 2296 2804 2024 2305 2737 2705 2591 2592 2492
383 401 558 513 620 530 440 357 372 428 526 809 819 761 632 596 563 605 664 829 873 757 858 943 996 1022 952 1083 1116 1134 1139 1149 1012 948 691 655 678 625 673 584 556 606 742 804 776 612 655 796 781 449 750 724 656 717 738 920 973 821 697 720 1036 547 1127 738 492 434 437 690 820 815 816 926 1022 1354 1482 1466 1974 2594 3007 2724 2910 3066 2971 2824 2821
331 532 342 431 600 670 527 390 413 619 726 886 769 675 515 579 650 637 690 657 793 960 950 994 1098 965 989 1021 1086 1143 1329 1241 1204 1055 687 540 560 574 476 472 478 431 391 404 568 684 652 524 587 563 280 472 610 683 719 858 790 744 688 649 246 457 615 686 593 549 337 488 595 752 773 964 932 874 1240 1368 1513 2191 2359 2400 2560 2544 2897 3048 3020
102 254 367 352 554 571 470 466 529 494 474 745 792 700 538 682 852 886 883 904 921 962 1113 1098 1080 1073 1153 1234 1229 1079 1108 970 1079 1101 955 744 538 499 462 413 405 349 298 256 182 413 607 655 644 527 316 432 553 871 920 748 727 742 644 542 450 428 518 786 792 590 512 487 582 631 709 776 862 952 849 1028 1237 1248 1306 1126 1272 2014 2438 2913 2966
188 199 302 220 260 557 378 394 351 409 550 396 452 446 534 604 751 911 962 1016 986 970 1033 1047 998 1148 1244 1267 1209 978 708 746 791 838 740 705 593 438 356 287 277 260 229 216 132 204 230 483 481 312 226 156 265 750 943 820 615 716 539 185 354 369 421 468 832 827 691 517 468 596 708 872 861 884 1002 927 1064 1103 1175 1600 1619 1938 2446 2583 2776
121 120 82 111 354 306 403 476 413 426 443 477 599 757 998 1200 1124 906 962 928 1038 1116 1160 1115 1159 1226 1340 1384 1249 1153 927 925 1018 883 855 860 582 455 260 206 96 101 131 166 254 355 326 183 204 448 641 222 408 697 816 714 612 511 220 364 335 368 364 398 428 844 886 367 492 526 633 732 700 749 958 1050 968 1172 1141 1458 1706 1883 2090 2185 2161
568 301 134 135 421 344 309 470 561 406 620 702 804 760 986 944 803 815 832 906 955 1145 1273 1282 1252 1331 1378 1395 1323 1376 1432 1370 1258 1011 964 850 558 512 407 124 98 66 58 38 24 48 222 401 422 374 314 210 464 684 531 662 611 480 545 275 402 312 370 317 327 326 434 516 466 456 474 513 632 708 822 1009 1105 1040 1231 1523 1404 1584 1869 1932 1944
567 320 220 376 470 286 379 604 653 711 729 918 1047 1230 1268 1294 1228 1158 1090 1031 1065 1226 1315 1404 1378 1365 1414 1422 1312 1320 1437 1384 1313 1088 904 805 630 557 416 166 89 34 21 18 11 9 12 92 281 410 470 399 348 551 516 562 430 149 130 480 445 474 516 448 298 290 447 412 347 386 481 368 634 659 775 860 887 890 897 1054 1049 1249 1415 1786 2046
558 365 370 410 403 467 631 666 682 755 856 992 1138 1244 1264 1267 1216 1127 1163 1262 1257 1312 1317 1326 1419 1469 1494 1520 1528 1404 1362 1406 1299 1040 813 693 668 435 287 106 50 26 21 16 14 12 11 15 84 292 419 321 281 320 451 520 599 660 929 863 706 692 691 478 387 259 224 238 356 392 434 636 400 544 591 662 759 716 922 930 1018 1153 1354 1401 1516
466 362 310 316 432 628 714 743 794 932 1035 1147 1183 1166 1042 1089 1025 1065 1192 1226 1311 1410 1517 1506 1412 1362 1387 1454 1574 1588 1484 1487 1170 597 294 501 490 300 112 80 72 33 44 41 25 16 16 16 34 28 67 159 208 191 168 209 148 272 436 495 448 490 429 407 434 374 235 232 184 241 408 373 274 380 445 647 635 800 860 906 790 902 994 976 1074
432 340 353 396 548 699 738 926 979 1031 1209 1216 1142 1095 986 932 985 1220 1372 1479 1571 1558 1586 1528 1380 1328 1325 1414 1504 1597 1476 1427 865 430 225 222 279 180 88 62 46 34 46 50 22 17 12 11 30 17 86 67 131 145 171 140 195 44 8 6 206 323 412 475 424 181 250 158 166 318 340 236 207 316 442 453 554 544 670 785 756 819 893 785 832
236 311 302 440 629 702 856 992 1002 1096 1262 1232 1078 918 764 856 1080 1325 1416 1586 1681 1688 1724 1593 1487 1430 1361 1406 1480 1660 1598 1256 820 405 216 203 155 81 113 90 46 26 18 7 10 12 10 8 26 103 188 238 314 387 106 0 0 0 0 34 156 134 156 554 283 319 220 151 148 198 284 246 265 410 384 397 512 671 709 731 762 674 716 742 850
397 385 400 514 604 828 921 894 912 1031 1210 1186 930 759 785 1001 1215 1384 1429 1462 1622 1755 1598 1539 1524 1521 1534 1626 1672 1669 1652 1439 758 368 173 178 180 83 110 96 43 23 12 1 4 7 14 12 195 176 122 174 153 237 446 388 8 0 0 0 44 17 85 55 0 227 228 272 158 196 245 250 306 328 377 454 580 589 694 618 711 641 635 875 947
516 365 448 598 780 898 884 884 870 1072 1154 1020 778 790 1028 1160 1260 1293 1426 1641 1734 1702 1702 1698 1711 1759 1736 1807 1816 1755 1800 1500 724 334 153 218 217 119 154 67 32 18 26 11 21 28 12 16 20 25 9 28 65 216 226 454 540 231 40 11 8 6 20 25 33 12 26 129 168 182 247 309 307 393 468 629 626 622 570 513 722 669 745 892 1035
560 498 486 623 838 814 813 899 937 1068 1061 917 849 972 1185 1282 1348 1376 1442 1556 1561 1526 1598 1496 1500 1527 1681 1746 1728 1710 1759 1188 579 328 216 342 328 129 223 89 70 49 55 38 12 4 4 18 22 18 10 4 7 1 80 189 247 457 256 50 0 7 1 0 4 8 10 23 45 186 257 298 375 420 632 756 634 660 687 752 736 741 821 778 1109
530 602 604 652 762 850 833 852 1070 1066 933 961 1102 1158 1297 1440 1429 1465 1434 1391 1538 1644 1648 1640 1592 1545 1566 1707 1678 1520 1325 1160 588 342 344 538 455 242 205 108 72 50 44 60 40 18 4 13 13 8 9 2 1 0 0 48 176 58 363 363 134 18 9 0 0 0 6 68 66 56 168 207 148 403 456 411 588 714 764 947 1244 1326 1367 1027 910
600 694 718 804 926 999 994 918 1022 1082 1022 1065 1078 960 1088 1223 1310 1434 1350 1233 1358 1530 1571 1442 1610 1546 1520 1476 1470 1288 1172 1400 804 389 319 480 356 340 272 186 140 120 52 53 80 62 22 13 7 3 0 0 0 0 0 0 2 1 5 47 101 90 30 27 0 0 0 0 6 14 34 24 0 214 262 276 415 474 738 694 805 934 776 720 868
784 877 869 967 1123 1177 1085 960 970 1055 1158 1100 831 790 826 1182 1357 1378 1242 1035 965 1012 1138 1345 1598 1708 1469 1306 952 843 818 1179 978 528 285 348 341 262 282 245 206 190 154 101 82 94 71 13 1 6 0 0 0 5 1 1 1 1 2 11 168 239 272 84 0 0 0 0 0 9 30 75 128 138 162 216 257 347 730 513 670 587 662 792 785
1033 1009 1020 1053 1108 1075 1003 1048 1012 1025 1246 1109 938 852 936 1047 1110 1256 1076 984 1043 1320 1368 1418 1445 1397 1063 1114 905 664 710 954 1218 682 341 326 360 261 304 267 248 232 208 172 155 124 122 81 10 0 0 0 0 5 8 0 14 50 45 12 19 144 226 272 116 33 0 1 1 2 14 24 48 64 92 124 179 245 526 416 349 502 638 532 708
1461 1249 1036 944 906 935 971 1050 1198 1266 1382 1359 1242 1104 1129 1059 933 736 924 840 774 795 1201 1277 1382 1132 986 1276 926 941 919 1016 1452 914 469 372 394 322 390 318 277 254 230 207 195 175 156 126 46 21 4 0 0 0 1 6 40 76 100 4 13 226 408 480 197 36 0 0 2 6 20 50 37 75 138 78 125 154 305 206 170 678 234 651 732
1242 1029 980 892 884 992 1114 1214 1359 1504 1508 1258 1052 993 1156 971 887 1033 736 673 941 1206 1091 1030 1026 1253 1105 1150 1061 938 702 585 1055 875 651 518 410 315 441 478 330 302 220 184 182 171 160 143 99 51 53 30 0 0 0 4 9 10 18 22 99 193 330 384 126 1 33 33 6 14 42 66 94 111 232 96 101 141 218 244 294 811 728 844 692
1046 1024 1101 1151 1127 1151 1289 1420 1474 1449 1584 1272 1210 1249 1258 1072 841 1020 856 936 1072 1127 1204 1062 1001 1128 1221 1238 1247 1108 944 377 817 839 502 336 239 250 444 634 534 425 260 229 215 201 190 153 122 102 92 69 22 0 0 0 0 4 16 16 14 50 140 206 186 107 68 41 32 20 38 59 86 122 202 166 108 118 212 396 276 665 942 778 790
1026 1117 1176 1138 1229 1298 1475 1576 1577 1624 1483 1274 1234 1015 1109 1088 1272 1286 1214 1084 1074 986 950 990 838 710 800 932 1218 1255 1114 979 477 806 391 0 0 0 105 455 635 528 379 313 290 248 200 186 166 140 120 99 74 12 0 0 0 3 22 14 0 0 1 35 145 86 499 315 60 31 28 55 81 110 167 158 140 225 452 307 489 753 831 874 994
991 1064 1201 1423 1510 1525 1498 1517 1740 1654 1297 1335 1078 1032 988 1035 1196 1364 1112 1036 876 803 803 880 864 606 539 568 931 1014 1190 1034 960 104 68 0 0 0 0 60 340 517 478 392 362 315 257 211 168 144 112 108 99 54 13 2 0 0 28 36 18 5 4 4 6 94 94 56 34 43 68 106 150 205 208 232 249 273 182 658 841 717 977 1113 1194
1259 1287 1402 1493 1641 1468 1363 1408 1581 1247 927 1074 885 850 749 927 967 1306 1160 932 936 792 814 603 752 700 695 767 834 875 890 914 985 504 0 0 0 0 0 0 0 0 106 362 306 220 153 138 116 104 84 79 98 98 52 22 0 1 18 46 29 16 4 14 17 22 62 91 102 125 152 241 334 294 367 368 544 271 256 334 342 453 823 486 422
1132 1163 1265 1400 1381 1205 1084 1250 1449 994 786 848 861 1008 691 634 737 1054 1032 865 838 830 711 536 501 478 589 476 674 625 652 890 916 432 25 0 0 0 0 0 0 0 0 96 3 0 0 0 79 72 49 62 86 105 77 50 21 6 4 18 26 26 20 7 6 13 18 37 19 122 178 127 204 250 215 194 226 195 212 201 250 86 388 196 175
1024 1287 1462 1285 1224 1072 1058 1110 1026 548 604 722 683 672 766 740 907 942 873 714 613 537 398 381 351 262 378 354 418 514 602 622 375 0 0 0 0 0 0 0 0 0 114 167 8 68 99 107 139 57 52 75 80 104 107 81 90 66 44 20 16 28 27 29 12 7 14 7 6 28 159 252 211 193 250 207 125 111 160 315 349 230 205 190 140
1128 1242 1086 950 969 1110 1198 1116 928 355 341 306 232 414 472 437 711 758 587 438 469 407 306 359 176 94 86 94 170 285 359 246 6 0 0 0 0 0 0 0 0 0 0 0 1 0 156 225 323 360 336 255 270 239 222 165 132 121 110 68 44 35 24 21 21 16 3 0 5 6 14 82 113 125 119 91 52 82 110 299 262 146 152 165 158
1098 1065 814 816 688 1072 1205 1030 976 468 406 717 841 972 698 620 758 163 0 1 4 38 164 15 0 0 0 0 0 2 1 0 0 0 0 0 0 1 0 0 0 0 0 0 2 31 324 250 208 146 159 192 196 218 191 178 202 190 125 102 113 63 32 6 3 0 0 1 25 13 2 1 47 36 48 54 43 60 72 74 68 76 51 37 49
806 462 462 388 208 266 618 623 638 795 264 428 649 507 0 0 151 197 0 0 0 0 0 0 0 0 0 1 2 0 1 0 0 0 0 0 0 0 0 0 0 1 0 0 0 68 241 188 139 134 133 140 123 133 158 164 201 240 195 151 158 124 83 37 18 10 8 1 4 47 60 34 16 2 0 58 69 52 58 32 56 53 39 12 90
567 424 458 273 300 411 345 346 764 970 700 793 780 490 44 0 0 0 0 0 0 0 0 0 0 0 0 0 0 0 0 0 0 0 0 0 0 0 0 0 0 0 0 0 192 192 170 176 144 143 116 84 72 70 88 168 184 222 226 227 187 162 142 106 72 58 32 13 13 16 10 14 22 18 4 0 17 1 0 7 9 1 22 59 91
682 606 520 420 776 813 801 777 768 684 764 809 652 444 372 3 1 0 0 0 0 0 0 0 0 0 0 0 0 0 0 0 0 0 0 0 0 0 0 0 0 0 0 0 298 162 122 76 50 20 16 11 15 48 72 103 192 220 236 232 204 186 172 159 128 113 107 108 81 57 42 30 8 2 1 0 0 3 2 5 7 10 12 8 13
290 294 525 762 816 887 768 1058 1040 791 552 486 608 594 557 582 39 0 0 0 0 0 0 0 0 0 0 0 0 0 0 0 0 0 0 0 0 0 0 0 0 0 0 0 0 0 0 0 0 0 0 0 0 0 0 12 68 132 166 186 150 196 189 217 243 220 148 109 142 115 94 75 52 18 5 6 18 29 16 17 13 10 14 18 15
718 601 656 785 1025 1088 965 944 883 984 896 827 738 420 670 639 907 190 0 0 0 0 0 0 0 0 0 0 0 0 0 0 0 0 0 0 0 0 0 0 0 0 0 0 0 0 0 0 0 0 0 0 0 0 0 0 68 62 34 26 82 129 164 200 299 266 205 228 176 200 176 166 140 111 58 38 54 24 15 36 71 22 2 4 3
729 686 734 847 724 771 765 952 857 712 684 629 615 548 536 580 401 227 291 162 16 0 2 1 0 0 0 0 0 0 0 0 0 0 0 0 0 0 0 0 0 0 0 0 0 0 0 0 0 0 0 0 0 0 0 0 0 65 90 92 97 87 88 100 104 144 236 234 218 153 116 150 158 156 166 148 126 66 38 46 49 73 27 19 8
448 506 690 504 455 637 806 732 1050 972 597 550 615 360 230 94 40 6 2 0 0 0 1 0 2 0 0 0 0 0 0 0 0 0 0 0 0 0 0 0 0 0 0 0 0 0 0 0 0 0 0 0 0 0 0 3 48 75 73 64 10 68 106 112 108 111 108 112 111 47 64 117 90 142 163 174 138 116 125 90 44 50 72 68 53
553 569 597 516 730 677 580 563 496 616 424 258 200 128 38 28 1 2 0 0 0 0 0 1 0 1 0 1 0 0 0 0 0 0 0 0 0 0 0 0 0 0 0 0 0 0 0 0 0 0 0 0 0 0 0 0 4 42 68 110 132 126 105 99 107 121 136 160 123 55 105 60 49 90 95 88 56 58 88 131 112 76 123 119 88
611 590 584 575 647 304 289 280 117 41 186 214 85 42 48 17 10 2 2 1 1 0 0 0 0 1 1 1 2 1 2 0 0 0 0 0 0 0 0 0 0 0 0 0 0 0 0 0 0 0 0 0 0 0 0 0 0 0 0 0 1 18 67 106 127 139 131 149 156 161 148 114 7 43 70 54 40 92 108 92 144 188 140 113 171
249 74 2 29 154 340 296 119 32 31 30 36 37 27 9 1 1 2 1 2 2 1 1 2 1 1 1 1 1 2 0 2 2 2 0 0 0 0 0 0 0 0 0 0 0 0 0 0 0 0 0 0 0 0 0 0 0 0 0 0 0 0 0 0 2 0 0 26 74 126 148 170 114 100 13 29 50 55 60 48 55 83 184 174 164
220 180 30 35 112 124 220 95 83 6 3 5 6 8 1 2 3 2 2 2 1 2 1 2 1 1 1 1 0 1 1 2 2 3 2 0 0 0 0 0 0 0 0 0 0 0 0 0 0 0 0 0 0 0 0 0 0 0 0 0 0 0 0 0 0 0 0 0 8 33 58 85 114 104 77 52 88 21 14 65 88 75 80 130 169
163 91 40 10 23 13 3 2 4 6 6 14 21 3 2 2 3 3 2 2 2 2 4 2 1 1 0 1 1 0 2 1 2 3 2 1 0 0 0 0 0 0 0 0 0 0 0 0 0 0 0 0 0 0 0 0 0 0 2 2 0 0 0 0 0 0 0 0 0 0 6 29 51 74 100 74 62 13 130 148 154 113 134 110 88
9 1 1 35 26 40 4 1 7 8 4 7 12 8 3 4 3 4 4 4 3 2 4 2 1 1 2 4 3 5 8 8 8 6 4 5 6 4 0 0 0 0 0 0 0 0 0 0 0 0 0 0 0 0 0 0 0 0 0 0 0 2 5 2 0 0 0 0 1 1 0 0 2 28 45 54 105 115 134 148 134 126 142 122 121
0 7 21 13 1 2 10 3 11 10 4 5 3 3 3 3 4 4 4 5 4 3 2 3 1 4 3 6 6 5 4 6 7 6 5 8 6 4 0 0 6 3 0 0 0 0 0 0 0 0 0 0 0 0 0 0 0 0 0 0 0 0 0 2 4 0 0 2 2 3 2 1 0 0 8 39 48 68 82 102 103 104 111 114 110
44 9 2 4 2 4 8 3 2 2 2 3 4 3 4 4 4 4 4 5 5 4 4 4 4 1 2 1 3 5 4 5 4 6 7 8 1 0 0 0 0 1 0 0 0 0 0 0 0 0 0 0 0 0 0 0 0 0 0 0 0 0 0 0 0 0 0 1 1 2 2 12 20 6 1 0 0 24 24 55 75 80 77 75 72
6 5 0 10 8 13 19 9 0 1 2 1 1 2 3 2 4 4 4 4 6 4 2 2 0 2 5 1 2 6 7 5 7 14 13 5 2 2 1 2 3 0 1 0 2 2 2 1 4 0 0 0 0 0 0 0 0 0 0 0 0 0 0 0 0 0 0 1 2 2 2 2 4 3 2 2 2 1 2 4 5 28 47 5 2
0 0 0 0 0 0 0 0 0 0 0 0 0 0 0 1 2 5 4 4 4 4 2 0 0 1 3 2 1 2 1 2 5 8 3 3 3 1 2 0 0 0 0 0 1 6 7 5 0 0 0 0 0 0 0 0 0 0 0 0 0 0 0 0 0 1 8 7 5 2 1 1 2 4 5 4 3 2 1 0 0 3 3 7 9
1 0 0 0 0 0 0 0 0 0 0 0 0 0 0 2 3 5 5 4 2 1 0 0 0 0 0 0 0 0 0 0 0 2 3 7 6 4 2 0 0 0 0 0 0 0 1 0 0 0 0 0 0 0 0 0 0 0 0 0 0 0 0 2 2 0 0 1 2 1 1 0 0 0 1 1 2 1 2 2 2 0 1 4 6
0 0 0 0 0 0 0 0 0 0 0 0 0 0 0 2 2 1 0 0 0 0 0 0 0 0 0 0 0 0 0 0 0 0 0 0 3 5 4 2 0 0 0 0 0 0 0 0 0 0 0 0 0 0 0 0 0 0 0 0 0 0 1 1 0 4 8 7 3 3 2 0 0 0 1 0 1 1 2 4 7 9 7 3 2
0 0 0 0 0 0 0 0 0 0 0 0 0 0 0 0 0 0 0 0 0 0 0 0 0 0 0 0 0 0 0 0 0 0 0 0 0 2 0 2 0 0 0 0 0 0 0 0 0 0 0 0 0 0 0 0 0 0 0 0 0 0 0 0 0 0 0 0 3 4 6 6 2 1 1 2 0 0 1 1 2 2 4 3 2
0 0 0 0 0 0 0 0 0 0 0 0 0 0 0 0 0 0 0 0 0 0 0 0 0 0 0 0 0 0 0 0 0 0 0 0 0 0 0 0 0 0 0 0 0 0 0 0 0 0 0 0 0 0 0 0 0 0 0 0 0 0 0 0 0 0 0 0 0 0 0 0 0 1 2 3 3 0 0 0 0 2 2 1 3
0 0 0 0 0 0 0 0 0 0 0 0 0 0 0 0 0 0 0 0 0 0 0 0 0 0 0 0 0 0 0 0 0 0 0 0 0 0 0 0 0 0 0 0 0 0 0 0 0 0 0 0 0 0 0 0 0 0 0 0 0 0 0 0 0 0 0 0 0 0 0 0 0 0 0 2 1 0 1 0 0 0 2 4 5
Wind_Speed
37 36 36 36 36 36 36 37 37 38 38 39 40 41 42 41 41 39 37 35 33 30 27 26 27 28 28 27 26 25 25 24 26 27 28 29 30 31 33 34 32 33 32 32 35 39 40 39 37 37 39 40 41 39 38 38 38 37 36 35 35 37 38 35 33 27 32 35 36 34 34 33 31 28 27 28 30 32 32 32 32 33 35 36 35
37 36 36 35 35 36 37 37 38 40 40 40 41 42 43 42 41 39 37 34 33 30 27 26 28 28 28 27 25 24 24 24 25 26 26 27 28 31 32 33 34 33 33 32 34 38 41 41 40 37 36 36 38 38 38 38 38 37 37 35 35 35 39 39 35 32 31 37 37 36 34 32 29 28 27 26 27 30 32 33 35 35 36 36 34
38 38 36 36 36 38 38 39 39 40 40 41 41 42 44 43 42 39 36 33 32 30 26 26 27 29 29 27 25 24 25 24 25 24 25 25 26 27 29 31 33 34 33 32 32 35 37 38 37 36 36 33 34 35 35 37 37 36 36 37 33 35 37 38 38 35 31 34 38 39 37 34 29 27 26 27 26 29 30 30 33 35 36 34 33
38 38 38 37 38 39 39 40 40 40 41 41 41 42 44 44 42 39 36 33 31 29 27 26 27 29 30 29 26 25 24 23 22 21 21 22 23 23 25 26 27 29 30 31 33 33 34 36 36 33 32 30 32 35 35 35 36 36 35 36 34 32 36 39 36 35 35 35 38 39 40 37 33 30 28 27 26 26 27 28 29 31 33 34 32
38 38 38 37 38 40 40 41 41 41 42 42 41 43 44 43 41 37 35 32 30 28 28 28 29 30 31 31 28 26 25 23 20 17 16 18 19 21 23 23 23 24 24 27 30 31 32 35 34 33 33 29 28 34 36 36 35 36 35 34 34 33 36 37 36 36 36 35 38 41 43 41 37 32 30 28 26 25 24 25 27 29 31 32 33
38 38 nan 39 40 40 41 43 43 43 43 43 43 44 45 44 40 37 35 31 30 29 28 29 31 31 32 32 31 28 26 24 21 18 17 16 18 19 20 22 nan 21 20 22 26 29 31 32 34 33 31 29 29 32 34 34 35 33 29 32 33 34 34 35 36 37 35 34 37 39 43 42 37 33 32 28 26 26 25 25 26 27 28 29 30
40 40 39 40 41 42 42 44 45 44 45 45 46 46 46 43 39 35 33 31 30 29 28 29 31 32 32 33 31 29 27 25 23 21 19 18 18 18 18 18 nan nan nan nan nan nan 28 30 32 31 30 29 29 31 32 34 35 31 31 32 32 34 35 35 36 34 35 35 35 36 40 41 39 35 33 31 27 26 26 26 25 25 26 26 27
42 41 41 42 43 43 44 46 46 46 46 46 46 47 46 45 41 37 33 32 31 30 28 29 30 33 33 33 32 31 28 26 24 22 20 20 21 20 18 17 nan nan nan nan nan nan nan nan 29 29 29 29 29 30 33 36 36 32 30 34 36 37 37 38 36 36 35 35 34 35 37 39 41 38 37 33 29 26 25 24 23 25 26 28 28
44 43 43 43 44 45 46 47 48 47 46 46 46 46 45 44 41 37 33 32 33 31 30 29 29 30 32 32 32 33 31 29 27 24 21 20 22 21 18 15 nan nan nan nan nan nan nan nan nan 27 27 27 27 30 33 36 35 33 35 38 36 37 39 39 39 37 35 34 34 35 36 40 41 40 37 34 29 25 28 27 25 27 30 30 29
45 44 44 44 45 46 47 47 47 46 45 45 44 44 43 43 40 36 32 31 31 32 30 29 29 29 30 31 31 32 33 32 31 27 24 22 20 21 19 nan nan nan nan nan nan nan nan nan nan nan nan 26 27 27 27 29 31 32 35 36 36 38 38 38 38 38 35 34 34 34 34 36 39 39 38 34 31 31 30 28 25 26 30 30 30
47 46 45 45 46 46 48 47 47 45 44 44 44 43 42 41 39 36 33 32 31 32 31 28 27 29 30 30 30 31 32 32 31 28 25 23 21 19 nan nan nan nan nan nan nan nan nan nan nan nan nan nan 24 24 26 28 28 nan nan nan 32 33 34 35 36 33 35 33 34 34 34 33 35 39 39 37 36 33 31 30 27 28 29 29 29
47 46 45 45 46 47 47 47 45 44 44 44 42 42 41 40 37 35 34 33 32 32 30 28 27 29 31 31 30 31 31 32 30 27 26 24 22 nan 19 nan nan nan nan nan nan nan nan nan nan 25 25 25 26 26 26 nan nan nan nan nan 24 28 30 34 34 33 32 32 32 32 33 33 35 39 40 39 39 37 33 31 30 28 28 28 30
46 45 45 45 45 47 48 47 45 44 44 43 42 41 40 38 36 34 33 34 32 30 29 27 26 28 30 30 29 30 30 33 30 27 27 26 23 nan 20 nan nan nan nan nan nan nan nan nan 35 33 31 29 26 25 26 28 nan nan nan nan nan nan nan nan nan 29 31 31 29 31 32 33 34 38 41 41 43 41 39 34 32 29 29 29 28
46 44 45 45 46 48 48 47 46 45 44 43 41 39 38 37 36 35 35 34 31 28 26 25 25 27 29 29 28 29 29 32 31 28 26 25 23 20 18 nan nan nan nan nan nan nan nan nan nan nan nan nan nan 34 29 25 28 29 nan nan nan nan nan nan nan nan nan 25 27 26 29 32 34 38 40 44 45 45 41 36 35 32 30 28 26
45 45 45 46 48 49 49 48 47 46 44 43 40 39 37 36 36 36 35 33 29 27 25 24 24 25 26 27 27 28 29 32 29 28 28 26 23 19 18 nan nan nan nan nan nan nan nan nan nan nan nan nan nan nan nan 36 30 27 29 nan nan nan nan nan nan nan nan nan nan 22 26 30 32 36 42 46 46 47 43 40 37 34 30 28 27
46 46 47 48 48 49 49 48 47 46 44 42 39 37 36 36 35 36 34 31 28 26 25 25 23 23 24 25 26 26 27 34 31 29 28 26 22 19 16 16 nan nan nan nan nan nan nan nan nan nan nan nan nan nan nan nan 32 nan 28 29 26 nan nan nan nan nan nan nan nan nan 25 28 31 35 41 46 49 48 47 46 44 39 33 28 24
47 48 49 49 49 49 48 47 45 44 43 40 37 35 35 35 35 36 32 29 26 24 24 23 22 22 23 24 24 24 24 29 32 31 29 27 24 20 16 15 16 13 nan nan nan nan nan nan nan nan nan nan nan nan nan nan nan nan nan nan 23 nan nan nan nan nan nan nan nan nan nan nan nan 37 41 44 49 50 50 46 41 37 32 28 27
48 49 49 49 49 48 47 46 45 43 42 39 35 34 35 36 35 34 31 27 24 22 21 21 21 21 22 23 23 22 23 26 29 29 29 28 26 22 16 13 13 12 9 15 nan nan nan nan nan nan nan nan nan nan nan nan nan nan nan nan 22 23 25 nan nan nan nan nan nan nan nan nan 37 38 39 43 45 51 47 43 41 39 34 31 29
48 49 48 48 47 46 45 45 44 42 39 37 36 35 35 34 33 32 29 26 23 22 21 21 21 21 22 22 24 22 22 23 26 27 29 28 26 22 16 11 10 12 9 12 14 13 15 nan nan nan nan nan nan nan nan nan nan nan nan nan nan 19 21 29 30 nan nan nan nan nan nan nan nan nan nan 39 44 45 45 41 40 37 36 32 30
48 48 47 45 45 44 44 43 43 41 38 37 37 36 35 34 32 29 27 25 23 22 22 22 21 21 22 23 22 22 22 22 23 25 27 27 27 23 17 12 9 8 8 8 12 11 10 12 nan nan nan nan nan nan nan nan nan nan 36 nan nan 19 20 25 21 nan nan nan nan nan nan nan nan nan 36 nan 44 43 42 40 38 37 35 33 34
48 46 46 44 43 42 42 43 42 40 38 36 37 36 35 33 31 28 25 24 22 21 21 22 21 21 21 22 23 22 23 21 22 24 23 25 26 24 18 13 10 8 7 6 10 11 8 6 nan nan nan nan nan nan nan nan nan nan nan nan nan 28 25 22 23 nan nan nan nan nan nan nan nan 35 35 nan 43 43 41 41 37 37 37 37 36
47 46 45 43 41 41 41 42 42 39 37 37 37 35 34 34 32 28 26 24 21 20 21 21 20 19 20 21 23 22 22 22 21 22 22 22 22 24 21 15 12 10 7 6 6 9 9 6 6 7 nan nan nan nan nan nan nan nan nan nan nan nan 29 23 25 27 nan nan nan nan nan nan nan 34 33 37 39 41 41 40 36 35 39 39 38
46 45 44 43 42 42 42 42 41 40 38 36 35 33 33 32 31 28 25 23 21 20 20 20 19 18 18 20 23 24 23 22 22 22 23 nan nan nan 20 17 12 14 11 8 6 4 7 9 8 7 11 nan nan nan nan nan nan nan nan nan nan nan nan nan 24 nan 27 27 nan nan nan nan nan 33 33 36 39 39 40 37 35 37 38 38 38
47 45 44 43 44 43 42 41 40 39 36 34 33 32 31 30 29 27 24 22 21 20 20 21 20 18 18 18 21 23 24 21 23 24 nan nan nan nan nan nan 15 15 13 11 9 6 3 6 8 9 9 10 nan nan nan nan nan nan nan nan nan nan nan nan nan nan nan nan nan nan nan 30 31 33 33 36 38 36 37 39 39 37 40 40 42
46 45 44 43 42 42 41 39 38 38 35 33 33 32 30 29 26 25 22 21 21 21 21 21 20 19 19 18 19 21 23 21 20 22 nan nan nan nan nan nan nan nan 13 11 9 7 4 4 5 6 nan nan nan nan nan nan nan nan nan nan nan nan nan nan nan nan nan nan 27 28 28 29 30 32 36 37 40 38 35 38 38 37 40 42 46
43 42 42 41 40 40 38 36 37 34 31 31 31 30 29 27 25 23 22 22 21 21 21 22 21 20 19 18 19 19 21 21 19 17 nan nan nan nan nan nan nan nan nan nan nan nan nan nan nan nan nan nan nan 14 nan nan nan nan nan nan nan nan nan nan nan nan nan nan nan 34 35 34 33 35 38 40 38 36 38 39 38 nan 39 41 40
41 42 41 40 39 38 35 34 36 36 32 31 31 30 29 27 25 23 23 22 21 21 22 23 22 21 20 19 19 18 19 21 20 nan nan nan nan nan nan nan nan nan 14 14 nan nan nan 3 3 nan nan nan nan 11 16 nan nan nan nan nan nan nan nan nan nan nan nan nan nan nan 38 38 40 41 40 41 40 40 37 36 36 36 39 41 40
41 41 41 40 38 36 33 33 35 35 34 32 31 29 27 25 24 24 24 24 22 22 23 24 24 nan nan nan 19 19 19 21 nan nan nan nan nan nan nan nan nan nan nan nan nan nan 10 8 6 7 9 11 11 14 17 20 22 25 27 nan nan nan nan nan nan nan nan nan nan nan nan nan 41 40 41 nan nan nan 36 35 36 38 40 41 41
42 41 41 40 37 35 34 34 35 35 35 33 31 29 25 26 26 26 nan nan nan nan 24 nan nan nan nan nan nan nan nan nan nan nan nan nan nan nan nan nan nan nan nan nan nan nan 11 11 11 9 10 10 11 12 15 18 21 23 27 28 30 nan nan nan nan nan nan nan nan nan nan nan nan nan nan nan nan nan nan nan nan nan nan nan nan
42 41 41 39 37 36 35 34 35 34 32 30 32 35 nan nan 24 26 nan nan nan nan nan nan nan nan nan nan nan nan nan nan nan nan nan nan nan nan nan nan nan nan nan nan nan nan 10 11 12 11 10 10 10 11 12 15 19 23 25 26 30 33 nan nan nan nan nan nan nan nan nan nan nan nan nan nan nan nan nan nan nan nan nan nan nan
41 40 40 38 38 36 33 31 34 34 31 30 31 34 nan nan nan nan nan nan nan nan nan nan nan nan nan nan nan nan nan nan nan nan nan nan nan nan nan nan nan nan nan nan 15 14 11 10 11 11 11 nan nan nan nan 11 15 19 22 24 29 32 34 35 nan nan nan nan nan nan nan nan nan nan nan nan nan nan nan nan nan nan nan nan nan
40 39 38 38 38 36 35 33 32 32 31 30 31 31 32 nan nan nan nan nan nan nan nan nan nan nan nan nan nan nan nan nan nan nan nan nan nan nan nan nan nan nan nan nan 15 14 11 nan nan nan nan nan nan nan nan 9 11 15 17 20 25 29 31 33 34 37 40 41 nan nan nan nan nan nan nan nan nan nan nan nan nan nan nan nan nan
39 37 37 37 37 36 35 34 33 31 30 28 27 26 27 29 nan nan nan nan nan nan nan nan nan nan nan nan nan nan nan nan nan nan nan nan nan nan nan nan nan nan nan nan nan nan nan nan nan nan nan nan nan nan nan nan nan 11 14 16 20 23 27 28 30 34 37 39 37 34 nan nan nan nan nan nan nan nan nan nan nan nan nan nan nan
37 36 36 37 36 36 35 35 34 33 31 30 30 29 26 25 24 27 nan nan nan nan nan nan nan nan nan nan nan nan nan nan nan nan nan nan nan nan nan nan nan nan nan nan nan nan nan nan nan nan nan nan nan nan nan nan nan nan nan nan nan 18 22 24 26 29 32 35 37 35 35 36 38 40 nan nan nan nan nan nan nan nan nan nan nan
36 37 36 34 34 34 33 35 36 36 33 31 28 27 27 28 27 27 28 28 nan nan nan nan nan nan nan nan nan nan nan nan nan nan nan nan nan nan nan nan nan nan nan nan nan nan nan nan nan nan nan nan nan nan nan nan nan nan nan nan nan nan nan nan 21 24 26 29 31 33 34 37 38 40 42 43 45 nan nan nan nan nan nan nan nan
35 35 37 36 35 34 34 37 39 38 35 32 31 32 32 nan nan nan nan nan nan nan nan nan nan nan nan nan nan nan nan nan nan nan nan nan nan nan nan nan nan nan nan nan nan nan nan nan nan nan nan nan nan nan nan nan nan nan nan nan nan nan 13 16 18 19 21 24 27 nan nan 33 nan 36 38 41 44 44 44 nan nan nan nan nan nan
34 34 34 34 34 35 37 37 37 35 34 34 33 34 nan nan nan nan nan nan nan nan nan nan nan nan nan nan nan nan nan nan nan nan nan nan nan nan nan nan nan nan nan nan nan nan nan nan nan nan nan nan nan nan nan nan nan nan nan 13 12 12 12 nan 14 15 17 20 23 nan 26 nan nan nan nan nan nan nan nan 40 40 nan 43 46 nan
33 34 35 35 36 36 36 35 35 nan 33 33 nan nan nan nan nan nan nan nan nan nan nan nan nan nan nan nan nan nan nan nan nan nan nan nan nan nan nan nan nan nan nan nan nan nan nan nan nan nan nan nan nan nan nan nan nan nan nan nan nan nan nan 14 15 15 15 16 19 21 21 23 nan nan nan nan nan nan 36 nan 36 36 38 41 44
35 nan nan nan 35 35 34 33 nan nan nan nan nan nan nan nan nan nan nan nan nan nan nan nan nan nan nan nan nan nan nan nan nan nan nan nan nan nan nan nan nan nan nan nan nan nan nan nan nan nan nan nan nan nan nan nan nan nan nan nan nan nan nan nan nan nan nan nan nan 18 19 20 21 23 nan nan nan nan nan nan nan nan 35 36 38
39 40 nan nan 38 37 35 nan nan nan nan nan nan nan nan nan nan nan nan nan nan nan nan nan nan nan nan nan nan nan nan nan nan nan nan nan nan nan nan nan nan nan nan nan nan nan nan nan nan nan nan nan nan nan nan nan nan nan nan nan nan nan nan nan nan nan nan nan nan nan nan nan 21 21 nan nan nan nan nan nan nan nan nan 35 36
39 nan nan nan nan nan nan nan nan nan nan nan nan nan nan nan nan nan nan nan nan nan nan nan nan nan nan nan nan nan nan nan nan nan nan nan nan nan nan nan nan nan nan nan nan nan nan nan nan nan nan nan nan nan nan nan nan nan nan nan nan nan nan nan nan nan nan nan nan nan nan nan nan nan 24 nan nan nan 25 27 28 29 30 33 nan
nan nan nan nan nan nan nan nan nan nan nan nan nan nan nan nan nan nan nan nan nan nan nan nan nan nan nan nan nan nan nan nan nan nan nan nan nan nan nan nan nan nan nan nan nan nan nan nan nan nan nan nan nan nan nan nan nan nan nan nan nan nan nan nan nan nan nan nan nan nan nan nan nan nan nan nan 26 27 26 26 27 28 30 29 29
nan nan nan nan nan nan nan nan nan nan nan nan nan nan nan nan nan nan nan nan nan nan nan nan nan nan nan nan nan nan nan nan nan nan nan nan nan nan nan nan nan nan nan nan nan nan nan nan nan nan nan nan nan nan nan nan nan nan nan nan nan nan nan nan nan nan nan nan nan nan nan nan nan nan nan nan nan nan nan 29 28 27 29 30 31
nan nan nan nan nan nan nan nan nan nan nan nan nan nan nan nan nan nan nan nan nan nan nan nan nan nan nan nan nan nan nan nan nan nan nan nan nan nan nan nan nan nan nan nan nan nan nan nan nan nan nan nan nan nan nan nan nan nan nan nan nan nan nan nan nan nan nan nan nan nan nan nan nan nan nan nan nan nan nan nan nan nan nan nan nan
nan nan nan nan nan nan nan nan nan nan nan nan nan nan nan nan nan nan nan nan nan nan nan nan nan nan nan nan nan nan nan nan nan nan nan nan nan nan nan nan nan nan nan nan nan nan nan nan nan nan nan nan nan nan nan nan nan nan nan nan nan nan nan nan nan nan nan nan nan nan nan nan nan nan nan nan nan nan nan nan nan nan nan nan nan
nan nan nan nan nan nan nan nan nan nan nan nan nan nan nan nan nan nan nan nan nan nan nan nan nan nan nan nan nan nan nan nan nan nan nan nan nan nan nan nan nan nan nan nan nan nan nan nan nan nan nan nan nan nan nan nan nan nan nan nan nan nan nan nan nan nan nan nan nan nan nan nan nan nan nan nan nan nan nan nan nan nan nan nan nan
nan nan nan nan nan nan nan nan nan nan nan nan nan nan nan nan nan nan nan nan nan nan nan nan nan nan nan nan nan nan nan nan nan nan nan nan nan nan nan nan nan nan nan nan nan nan nan nan nan nan nan nan nan nan nan nan nan nan nan nan nan nan nan nan nan nan nan nan nan nan nan nan nan nan nan nan nan nan nan nan nan nan nan nan nan
nan nan nan nan nan nan nan nan nan nan nan nan nan nan nan nan nan nan nan nan nan nan nan nan nan nan nan nan nan nan nan nan nan nan nan nan nan nan nan nan nan nan nan nan nan nan nan nan nan nan nan nan nan nan nan nan nan nan nan nan nan nan nan nan nan nan nan nan nan nan nan nan nan nan nan nan nan nan nan nan nan nan nan nan nan
nan nan nan nan nan nan nan nan nan nan nan nan nan nan nan nan nan nan nan nan nan nan nan nan nan nan nan nan nan nan nan nan nan nan nan nan nan nan nan nan nan nan nan nan nan nan nan nan nan nan nan nan nan nan nan nan nan nan nan nan nan nan nan nan nan nan nan nan nan nan nan nan nan nan nan nan nan nan nan nan nan nan nan nan nan
nan nan nan nan nan nan nan nan nan nan nan nan nan nan nan nan nan nan nan nan nan nan nan nan nan nan nan nan nan nan nan nan nan nan nan nan nan nan nan nan nan nan nan nan nan nan nan nan nan nan nan nan nan nan nan nan nan nan nan nan nan nan nan nan nan nan nan nan nan nan nan nan nan nan nan nan nan nan nan nan nan nan nan nan nan
nan nan nan nan nan nan nan nan nan nan nan nan nan nan nan nan nan nan nan nan nan nan nan nan nan nan nan nan nan nan nan nan nan nan nan nan nan nan nan nan nan nan nan nan nan nan nan nan nan nan nan nan nan nan nan nan nan nan nan nan nan nan nan nan nan nan nan nan nan nan nan nan nan nan nan nan nan nan nan nan nan nan nan nan nan
Wind_Direction
318 319 318 320 321 322 322 324 326 327 328 328 328 327 327 327 328 327 325 323 318 314 310 310 309 307 305 302 300 296 293 288 283 278 272 266 262 255 250 248 247 246 247 244 243 239 236 235 235 239 242 246 247 248 250 252 251 247 246 245 244 244 246 244 238 225 225 230 230 228 228 233 235 241 242 243 244 244 244 238 236 239 242 242 242
319 320 319 319 321 321 322 324 326 327 329 328 327 326 326 327 327 328 327 323 320 315 313 311 310 308 307 304 301 298 293 289 285 280 273 268 264 261 255 249 246 245 245 242 238 239 237 235 238 237 242 244 246 248 250 250 248 246 247 246 243 240 244 245 240 231 220 227 232 232 228 232 230 238 240 242 244 245 244 240 238 239 241 242 243
318 319 320 320 321 322 324 326 326 328 328 327 326 326 326 327 328 329 326 322 319 316 312 311 311 311 310 308 302 297 295 293 289 284 275 270 268 264 257 250 247 245 244 241 237 236 236 235 235 238 241 243 246 245 247 248 245 244 245 245 242 240 241 245 243 237 224 220 229 231 232 235 235 235 240 241 242 243 242 240 236 237 239 240 240
321 320 320 322 322 322 324 325 327 328 327 326 327 327 327 328 329 329 326 321 319 315 311 309 309 312 314 314 307 298 298 298 296 293 287 277 270 265 258 253 252 251 245 240 236 232 230 231 232 235 241 242 245 245 247 246 243 243 243 242 240 238 240 244 245 239 230 223 229 233 235 234 236 238 236 237 239 238 235 230 229 231 235 239 238
320 321 321 323 323 323 324 324 326 327 327 327 328 327 327 328 329 330 325 320 317 315 311 309 309 311 314 316 313 307 304 305 302 297 294 286 276 268 257 250 251 254 253 247 238 234 229 227 228 230 238 242 244 244 246 248 244 243 241 239 240 239 238 240 242 242 235 228 227 233 236 236 235 237 238 236 236 234 230 231 231 231 234 236 237
321 321 nan 322 322 324 324 325 327 328 327 328 327 326 326 329 330 330 324 318 314 313 312 309 308 309 312 317 319 316 311 311 307 296 293 293 287 274 258 250 nan 247 250 247 241 234 231 227 228 229 234 238 241 242 241 246 245 242 240 240 240 240 237 237 239 240 239 231 229 230 237 238 236 235 237 236 233 232 229 229 229 230 231 233 235
320 321 322 322 322 323 325 326 326 326 327 327 326 325 326 328 329 328 322 315 312 310 309 309 308 308 310 314 319 319 314 313 311 304 297 292 286 283 273 256 nan nan nan nan nan nan 225 226 230 233 231 236 238 237 239 243 244 242 242 242 242 240 237 235 238 237 236 233 230 230 232 237 236 233 235 236 231 231 231 230 228 231 231 231 230
321 321 321 321 322 324 325 324 324 325 326 326 325 324 325 326 328 327 322 316 312 311 308 306 306 308 310 313 318 321 319 315 313 308 299 288 284 286 285 273 nan nan nan nan nan nan nan nan 225 231 235 236 235 232 234 238 239 238 239 242 241 241 239 236 237 238 236 234 231 229 232 234 236 233 232 235 233 230 234 233 227 228 230 232 231
320 321 321 321 323 323 322 322 322 323 325 325 325 324 323 325 327 326 321 314 310 310 309 307 308 309 310 313 317 321 320 317 314 310 301 290 285 286 283 269 nan nan nan nan nan nan nan nan nan 227 233 236 238 234 233 235 236 238 241 242 242 242 240 237 236 237 237 235 232 228 228 234 237 234 233 236 235 230 233 236 231 228 227 226 227
319 320 321 322 322 322 320 321 321 321 324 325 323 322 322 323 325 324 319 311 308 309 310 310 311 311 310 311 317 320 320 318 319 323 314 298 284 281 279 nan nan nan nan nan nan nan nan nan nan nan nan 231 240 243 240 239 239 236 235 239 240 240 239 239 238 239 237 235 234 232 230 233 236 236 233 233 233 232 232 233 230 230 229 225 225
318 319 321 321 320 319 319 319 319 321 324 324 322 320 320 321 323 322 316 310 308 308 310 311 312 312 311 312 316 319 319 317 322 323 315 303 288 276 nan nan nan nan nan nan nan nan nan nan nan nan nan nan 238 243 243 244 243 nan nan nan 233 239 241 240 239 241 240 235 234 234 232 232 236 238 235 231 233 234 233 233 231 234 234 231 227
317 318 319 318 318 318 318 318 320 323 324 324 321 319 319 320 321 319 313 309 307 308 310 310 310 310 310 311 315 318 318 319 324 322 314 304 291 nan 295 nan nan nan nan nan nan nan nan nan nan 226 229 228 229 238 247 nan nan nan nan nan 238 235 236 239 239 241 241 237 235 237 237 236 236 240 238 234 233 234 234 234 234 234 236 236 233
315 317 317 317 317 317 317 319 322 324 324 322 319 317 318 319 319 316 312 308 308 309 308 307 306 307 309 310 312 316 318 319 323 322 318 313 298 nan 299 nan nan nan nan nan nan nan nan nan 220 223 225 222 228 230 228 236 nan nan nan nan nan nan nan nan nan 237 241 241 239 238 239 237 238 240 241 237 235 233 234 234 235 235 236 236 234
315 317 317 317 318 318 318 321 324 325 323 320 318 317 317 318 317 315 312 311 310 309 306 303 302 304 305 307 310 314 317 318 324 325 324 321 310 296 300 nan nan nan nan nan nan nan nan nan nan nan nan nan nan 221 223 228 235 244 nan nan nan nan nan nan nan nan nan 238 241 239 237 237 236 239 243 242 239 234 232 233 237 236 237 236 235
315 317 318 318 318 319 322 324 325 323 321 319 317 317 317 317 316 313 310 310 309 307 303 299 300 302 303 305 309 312 315 318 323 324 326 329 321 309 304 nan nan nan nan nan nan nan nan nan nan nan nan nan nan nan nan 221 225 238 246 nan nan nan nan nan nan nan nan nan nan 234 230 233 233 236 240 242 240 235 232 233 238 238 235 234 232
316 318 319 320 321 323 324 325 323 321 320 318 317 317 316 316 315 311 309 309 310 309 305 304 303 303 302 304 307 310 311 318 324 325 328 330 321 311 304 314 nan nan nan nan nan nan nan nan nan nan nan nan nan nan nan nan 227 nan 239 245 248 nan nan nan nan nan nan nan nan nan 226 227 233 236 238 239 238 236 232 230 234 236 236 235 236
319 320 321 322 323 324 324 323 321 321 319 317 316 316 315 315 313 311 309 308 309 307 304 302 302 304 305 305 307 308 308 315 322 326 331 331 324 317 315 321 331 325 nan nan nan nan nan nan nan nan nan nan nan nan nan nan nan nan nan nan 244 nan nan nan nan nan nan nan nan nan nan nan nan 240 241 241 237 236 234 233 234 237 234 232 235
320 320 321 323 323 323 323 321 321 321 319 317 316 314 313 313 314 312 310 308 309 306 302 302 303 304 307 307 305 304 305 313 323 327 329 331 327 324 321 324 337 333 277 246 nan nan nan nan nan nan nan nan nan nan nan nan nan nan nan nan 242 243 247 nan nan nan nan nan nan nan nan nan 240 244 245 244 242 238 235 235 238 239 238 239 239
319 320 321 322 322 322 321 321 322 321 319 316 313 312 311 311 312 313 311 309 309 306 303 302 301 302 304 304 307 309 303 309 322 329 330 332 330 328 329 327 339 342 308 258 252 256 248 nan nan nan nan nan nan nan nan nan nan nan nan nan nan 242 245 254 252 nan nan nan nan nan nan nan nan nan nan 247 246 242 237 236 236 240 242 244 245
317 317 319 320 321 321 321 322 322 321 319 315 312 311 311 311 311 311 309 306 303 301 302 302 301 299 300 303 301 302 300 303 313 322 326 329 333 333 333 330 331 345 331 283 248 240 241 237 nan nan nan nan nan nan nan nan nan nan 225 nan nan 233 241 247 257 nan nan nan nan nan nan nan nan nan 237 nan 240 241 237 235 235 238 242 245 247
315 318 319 320 322 323 322 321 321 320 317 313 310 311 310 309 310 311 306 301 301 302 299 298 299 301 301 301 301 299 297 297 302 309 318 324 329 335 338 336 330 339 348 320 275 244 227 209 nan nan nan nan nan nan nan nan nan nan nan nan nan 219 217 248 253 nan nan nan nan nan nan nan nan 231 234 nan 238 237 236 233 232 238 241 243 247
316 318 319 320 321 321 320 318 317 315 314 311 311 311 309 307 308 308 304 301 300 298 297 297 299 303 305 303 301 300 300 302 299 300 305 311 321 338 341 338 326 327 352 352 304 266 246 233 235 210 nan nan nan nan nan nan nan nan nan nan nan nan 216 233 248 251 nan nan nan nan nan nan nan 231 232 236 235 235 233 231 231 233 237 239 244
316 317 318 319 319 318 316 316 315 312 311 312 312 312 309 306 304 304 303 299 296 293 292 292 295 300 303 304 303 301 301 303 304 298 298 nan nan nan 338 342 338 332 342 356 346 296 262 245 239 207 188 nan nan nan nan nan nan nan nan nan nan nan nan nan 224 nan 244 245 nan nan nan nan nan 235 234 231 229 230 228 226 229 233 235 238 242
317 318 317 317 317 316 315 315 315 313 311 311 313 314 311 306 302 301 299 297 293 290 288 290 293 295 297 301 304 303 303 304 307 301 nan nan nan nan nan nan 336 331 334 349 356 352 295 240 224 193 186 187 nan nan nan nan nan nan nan nan nan nan nan nan nan nan nan nan nan nan nan 238 239 241 239 232 227 227 226 226 230 238 241 242 241
317 316 316 316 316 315 314 315 315 313 314 315 317 317 314 306 302 301 298 293 292 290 288 289 292 295 298 302 304 303 301 303 305 303 nan nan nan nan nan nan nan nan 332 336 348 353 28 99 149 186 nan nan nan nan nan nan nan nan nan nan nan nan nan nan nan nan nan nan 234 239 243 241 242 243 243 241 232 230 229 231 236 241 245 244 238
316 315 314 314 313 313 314 316 316 315 311 311 316 318 317 309 304 301 297 294 293 293 291 290 292 293 297 298 299 300 301 304 302 300 nan nan nan nan nan nan nan nan nan nan nan nan nan nan nan nan nan nan nan 224 nan nan nan nan nan nan nan nan nan nan nan nan nan nan nan 225 229 240 247 244 245 243 239 235 236 238 238 nan 245 246 244
314 313 312 311 311 313 316 317 313 308 312 310 310 314 316 310 304 302 299 295 294 293 291 290 291 291 294 294 294 295 297 298 298 nan nan nan nan nan nan nan nan nan 332 326 nan nan nan 330 295 nan nan nan nan 227 215 nan nan nan nan nan nan nan nan nan nan nan nan nan nan nan 220 226 234 238 240 243 241 238 237 241 246 247 248 247 246
313 312 310 310 310 312 313 314 311 310 312 311 310 311 311 308 302 298 295 292 293 293 290 288 287 nan nan nan 290 290 289 291 nan nan nan nan nan nan nan nan nan nan nan nan nan nan 336 332 319 283 259 251 249 247 238 225 208 193 188 nan nan nan nan nan nan nan nan nan nan nan nan nan 225 229 234 nan nan nan 239 239 239 245 246 247 248
311 309 308 309 310 312 311 308 307 310 310 308 307 303 302 300 296 291 nan nan nan nan 290 nan nan nan nan nan nan nan nan nan nan nan nan nan nan nan nan nan nan nan nan nan nan nan 327 312 291 272 264 258 250 244 240 233 225 212 203 196 195 nan nan nan nan nan nan nan nan nan nan nan nan nan nan nan nan nan nan nan nan nan nan nan nan
308 309 308 307 306 308 309 308 304 305 309 310 307 298 nan nan 281 293 nan nan nan nan nan nan nan nan nan nan nan nan nan nan nan nan nan nan nan nan nan nan nan nan nan nan nan nan 320 307 298 286 278 270 258 245 234 232 226 222 219 213 205 201 nan nan nan nan nan nan nan nan nan nan nan nan nan nan nan nan nan nan nan nan nan nan nan
307 308 307 306 306 308 306 304 302 303 306 306 306 304 nan nan nan nan nan nan nan nan nan nan nan nan nan nan nan nan nan nan nan nan nan nan nan nan nan nan nan nan nan nan 329 315 307 300 296 292 286 nan nan nan nan 234 224 222 220 218 215 208 203 199 nan nan nan nan nan nan nan nan nan nan nan nan nan nan nan nan nan nan nan nan nan
305 305 304 307 309 309 307 303 300 301 301 303 305 307 304 nan nan nan nan nan nan nan nan nan nan nan nan nan nan nan nan nan nan nan nan nan nan nan nan nan nan nan nan nan 316 299 300 nan nan nan nan nan nan nan nan 248 229 217 214 213 213 213 211 208 204 204 200 200 nan nan nan nan nan nan nan nan nan nan nan nan nan nan nan nan nan
306 306 307 308 307 307 304 302 299 297 296 298 300 301 305 304 nan nan nan nan nan nan nan nan nan nan nan nan nan nan nan nan nan nan nan nan nan nan nan nan nan nan nan nan nan nan nan nan nan nan nan nan nan nan nan nan nan 229 223 214 210 208 213 217 217 215 210 209 212 212 nan nan nan nan nan nan nan nan nan nan nan nan nan nan nan
304 305 305 306 306 304 303 301 299 295 292 292 294 293 286 284 289 298 nan nan nan nan nan nan nan nan nan nan nan nan nan nan nan nan nan nan nan nan nan nan nan nan nan nan nan nan nan nan nan nan nan nan nan nan nan nan nan nan nan nan nan 212 210 212 218 222 222 221 224 222 218 214 212 212 nan nan nan nan nan nan nan nan nan nan nan
301 302 304 302 300 299 298 298 297 293 287 284 285 282 282 282 284 288 291 292 nan nan nan nan nan nan nan nan nan nan nan nan nan nan nan nan nan nan nan nan nan nan nan nan nan nan nan nan nan nan nan nan nan nan nan nan nan nan nan nan nan nan nan nan 218 218 222 225 228 229 225 222 220 220 219 220 220 nan nan nan nan nan nan nan nan
299 298 298 299 298 296 294 295 293 287 284 284 286 283 282 nan nan nan nan nan nan nan nan nan nan nan nan nan nan nan nan nan nan nan nan nan nan nan nan nan nan nan nan nan nan nan nan nan nan nan nan nan nan nan nan nan nan nan nan nan nan nan 241 233 227 226 222 224 224 nan nan 227 nan 226 225 226 225 225 226 nan nan nan nan nan nan
294 294 294 295 295 293 292 293 291 283 275 278 281 281 nan nan nan nan nan nan nan nan nan nan nan nan nan nan nan nan nan nan nan nan nan nan nan nan nan nan nan nan nan nan nan nan nan nan nan nan nan nan nan nan nan nan nan nan nan 281 279 270 263 nan 242 240 234 230 227 nan 227 nan nan nan nan nan nan nan nan 231 231 nan 231 232 nan
290 290 292 296 297 295 295 296 291 nan 270 270 nan nan nan nan nan nan nan nan nan nan nan nan nan nan nan nan nan nan nan nan nan nan nan nan nan nan nan nan nan nan nan nan nan nan nan nan nan nan nan nan nan nan nan nan nan nan nan nan nan nan nan 270 257 255 251 246 239 236 235 232 nan nan nan nan nan nan 239 nan 235 235 236 234 232
290 nan nan nan 293 293 291 291 nan nan nan nan nan nan nan nan nan nan nan nan nan nan nan nan nan nan nan nan nan nan nan nan nan nan nan nan nan nan nan nan nan nan nan nan nan nan nan nan nan nan nan nan nan nan nan nan nan nan nan nan nan nan nan nan nan nan nan nan nan 252 248 243 236 232 nan nan nan nan nan nan nan nan 235 238 237
291 292 nan nan 291 290 290 nan nan nan nan nan nan nan nan nan nan nan nan nan nan nan nan nan nan nan nan nan nan nan nan nan nan nan nan nan nan nan nan nan nan nan nan nan nan nan nan nan nan nan nan nan nan nan nan nan nan nan nan nan nan nan nan nan nan nan nan nan nan nan nan nan 251 247 nan nan nan nan nan nan nan nan nan 230 234
294 nan nan nan nan nan nan nan nan nan nan nan nan nan nan nan nan nan nan nan nan nan nan nan nan nan nan nan nan nan nan nan nan nan nan nan nan nan nan nan nan nan nan nan nan nan nan nan nan nan nan nan nan nan nan nan nan nan nan nan nan nan nan nan nan nan nan nan nan nan nan nan nan nan 253 nan nan nan 238 236 234 233 234 232 nan
nan nan nan nan nan nan nan nan nan nan nan nan nan nan nan nan nan nan nan nan nan nan nan nan nan nan nan nan nan nan nan nan nan nan nan nan nan nan nan nan nan nan nan nan nan nan nan nan nan nan nan nan nan nan nan nan nan nan nan nan nan nan nan nan nan nan nan nan nan nan nan nan nan nan nan nan 257 255 253 249 245 244 246 246 243
nan nan nan nan nan nan nan nan nan nan nan nan nan nan nan nan nan nan nan nan nan nan nan nan nan nan nan nan nan nan nan nan nan nan nan nan nan nan nan nan nan nan nan nan nan nan nan nan nan nan nan nan nan nan nan nan nan nan nan nan nan nan nan nan nan nan nan nan nan nan nan nan nan nan nan nan nan nan nan 257 255 253 250 251 250
nan nan nan nan nan nan nan nan nan nan nan nan nan nan nan nan nan nan nan nan nan nan nan nan nan nan nan nan nan nan nan nan nan nan nan nan nan nan nan nan nan nan nan nan nan nan nan nan nan nan nan nan nan nan nan nan nan nan nan nan nan nan nan nan nan nan nan nan nan nan nan nan nan nan nan nan nan nan nan nan nan nan nan nan nan
nan nan nan nan nan nan nan nan nan nan nan nan nan nan nan nan nan nan nan nan nan nan nan nan nan nan nan nan nan nan nan nan nan nan nan nan nan nan nan nan nan nan nan nan nan nan nan nan nan nan nan nan nan nan nan nan nan nan nan nan nan nan nan nan nan nan nan nan nan nan nan nan nan nan nan nan nan nan nan nan nan nan nan nan nan
nan nan nan nan nan nan nan nan nan nan nan nan nan nan nan nan nan nan nan nan nan nan nan nan nan nan nan nan nan nan nan nan nan nan nan nan nan nan nan nan nan nan nan nan nan nan nan nan nan nan nan nan nan nan nan nan nan nan nan nan nan nan nan nan nan nan nan nan nan nan nan nan nan nan nan nan nan nan nan nan nan nan nan nan nan
nan nan nan nan nan nan nan nan nan nan nan nan nan nan nan nan nan nan nan nan nan nan nan nan nan nan nan nan nan nan nan nan nan nan nan nan nan nan nan nan nan nan nan nan nan nan nan nan nan nan nan nan nan nan nan nan nan nan nan nan nan nan nan nan nan nan nan nan nan nan nan nan nan nan nan nan nan nan nan nan nan nan nan nan nan
nan nan nan nan nan nan nan nan nan nan nan nan nan nan nan nan nan nan nan nan nan nan nan nan nan nan nan nan nan nan nan nan nan nan nan nan nan nan nan nan nan nan nan nan nan nan nan nan nan nan nan nan nan nan nan nan nan nan nan nan nan nan nan nan nan nan nan nan nan nan nan nan nan nan nan nan nan nan nan nan nan nan nan nan nan
nan nan nan nan nan nan nan nan nan nan nan nan nan nan nan nan nan nan nan nan nan nan nan nan nan nan nan nan nan nan nan nan nan nan nan nan nan nan nan nan nan nan nan nan nan nan nan nan nan nan nan nan nan nan nan nan nan nan nan nan nan nan nan nan nan nan nan nan nan nan nan nan nan nan nan nan nan nan nan nan nan nan nan nan nan
nan nan nan nan nan nan nan nan nan nan nan nan nan nan nan nan nan nan nan nan nan nan nan nan nan nan nan nan nan nan nan nan nan nan nan nan nan nan nan nan nan nan nan nan nan nan nan nan nan nan nan nan nan nan nan nan nan nan nan nan nan nan nan nan nan nan nan nan nan nan nan nan nan nan nan nan nan nan nan nan nan nan nan nan nan
nan nan nan nan nan nan nan nan nan nan nan nan nan nan nan nan nan nan nan nan nan nan nan nan nan nan nan nan nan nan nan nan nan nan nan nan nan nan nan nan nan nan nan nan nan nan nan nan nan nan nan nan nan nan nan nan nan nan nan nan nan nan nan nan nan nan nan nan nan nan nan nan nan nan nan nan nan nan nan nan nan nan nan nan nan